Temp
-2 -2 -2 -2 -2 -2 -2 -1 -2 -4 -3 -2 -2 -2 -2 -2 -1 -1 -1 -1 -1 -1 -0 -0 0 0 0 0 1 1 1 1 2 2 3 3 3 3
-3 -3 -3 -3 -3 -3 -3 -3 -2 -3 -5 -3 -2 -2 -2 -2 -2 -2 -2 -1 -1 -1 -1 -1 -0 0 0 0 0 1 1 1 1 2 2 3 3 3
-3 -3 -3 -3 -3 -3 -3 -3 -3 -3 -3 -3 -3 -3 -3 -3 -3 -2 -2 -2 -2 -1 -2 -1 -1 -0 0 0 0 0 0 1 1 1 2 2 2 3
-4 -4 -4 -4 -4 -4 -4 -4 -4 -4 -4 -4 -4 -3 -3 -3 -3 -3 -3 -2 -2 -2 -2 -1 -1 -0 0 0 0 0 0 0 0 1 1 1 1 2
-4 -4 -4 -4 -4 -4 -4 -4 -4 -4 -4 -4 -4 -4 -4 -4 -3 -3 -3 -3 -2 -2 -2 -2 -1 -1 -1 -0 -0 -0 -0 -0 -0 -0 0 0 0 1
-5 -5 -5 -5 -5 -5 -5 -5 -5 -5 -4 -4 -5 -4 -4 -4 -4 -4 -3 -3 -3 -2 -2 -2 -2 -2 -2 -1 -1 -1 -1 -1 -1 -0 -0 0 0 0
-5 -5 -5 -5 -5 -5 -5 -5 -5 -5 -5 -5 -5 -5 -5 -4 -4 -4 -4 -4 -3 -3 -2 -2 -2 -2 -2 -2 -2 -2 -2 -1 -1 -1 -0 -0 0 0
-5 -5 -5 -5 -5 -5 -4 -4 -4 -4 -4 -5 -5 -5 -5 -5 -5 -5 -4 -5 -5 -3 -3 -3 -3 -2 -2 -2 -2 -2 -2 -2 -2 -1 -1 -0 -0 -0
-5 -6 -6 -6 -6 -6 -5 -5 -4 -4 -4 -4 -5 -5 -5 -5 -4 -4 -4 -5 -5 -3 -4 -4 -3 -3 -2 -2 -3 -3 -3 -2 -2 -1 -1 -1 -1 -1
-6 -6 -6 -6 -6 -6 -6 -5 -5 -5 -4 -4 -5 -5 -5 -4 -4 -4 -4 -5 -5 -4 -4 -5 -4 -3 -3 -3 -3 -3 -3 -2 -2 -2 -2 -2 -2 -2
-6 -6 -6 -7 -6 -6 -6 -6 -5 -5 -5 -5 -4 -4 -4 -4 -4 -4 -4 -5 -5 -4 -4 -4 -4 -4 -4 -4 -4 -3 -3 -3 -3 -3 -3 -3 -3 -3
-7 -7 -7 -6 -6 -6 -5 -5 -5 -5 -5 -5 -5 -4 -4 -4 -4 -4 -4 -5 -5 -5 -4 -5 -4 -4 -5 -4 -4 -4 -4 -4 -4 -4 -4 -4 -4 -4
-7 -7 -7 -7 -6 -6 -5 -5 -5 -5 -5 -5 -5 -5 -5 -5 -4 -4 -5 -5 -6 -6 -5 -6 -6 -6 -6 -6 -6 -5 -5 -5 -5 -5 -5 -5 -5 -5
-7 -7 -7 -7 -6 -6 -5 -5 -4 -4 -5 -5 -5 -5 -5 -4 -4 -5 -5 -6 -6 -6 -6 -6 -7 -6 -7 -7 -7 -7 -7 -6 -6 -6 -6 -6 -6 -6
-7 -7 -7 -6 -6 -6 -5 -5 -4 -5 -5 -5 -5 -5 -5 -5 -5 -6 -6 -6 -7 -7 -7 -7 -7 -7 -7 -8 -8 -8 -8 -7 -7 -7 -6 -6 -6 -6
-8 -7 -7 -6 -6 -6 -6 -6 -6 -6 -6 -5 -5 -5 -5 -6 -6 -6 -7 -7 -7 -7 -7 -7 -7 -8 -8 -8 -9 -8 -8 -8 -7 -7 -7 -7 -7 -7
-7 -7 -7 -7 -7 -6 -6 -6 -6 -5 -5 -5 -5 -5 -6 -6 -6 -7 -7 -8 -8 -8 -8 -8 -7 -8 -8 -8 -9 -9 -9 -8 -8 -8 -8 -8 -7 -7
-7 -7 -7 -7 -8 -7 -7 -6 -6 -6 -6 -6 -6 -6 -6 -7 -7 -8 -8 -8 -9 -9 -9 -9 -9 -9 -9 -9 -9 -9 -9 -8 -8 -8 -8 -7 -7 -7
-7 -7 -7 -7 -7 -7 -7 -6 -6 -6 -6 -6 -6 -6 -7 -7 -9 -9 -9 -9 -9 -9 -9 -9 -9 -9 -10 -9 -9 -8 -8 -8 -8 -8 -8 -7 -7 -7
-9 -10 -9 -8 -8 -7 -7 -7 -7 -7 -7 -7 -7 -7 -8 -8 -9 -10 -10 -10 -10 -10 -10 -10 -10 -10 -10 -9 -9 -9 -8 -9 -8 -8 -8 -8 -8 -8
-11 -10 -10 -9 -9 -9 -8 -8 -8 -8 -8 -8 -8 -8 -8 -9 -9 -10 -10 -9 -8 -9 -9 -9 -9 -9 -9 -9 -10 -9 -9 -8 -8 -8 -8 -8 -8 -7
-12 -11 -11 -11 -11 -10 -10 -10 -9 -9 -9 -9 -9 -9 -9 -10 -10 -10 -10 -10 -10 -10 -10 -10 -9 -10 -10 -10 -10 -10 -10 -8 -8 -9 -8 -8 -8 -7
-12 -12 -12 -12 -11 -11 -10 -10 -10 -10 -10 -9 -9 -9 -10 -10 -10 -10 -10 -10 -10 -10 -10 -10 -10 -10 -10 -10 -10 -9 -10 -9 -9 -9 -9 -8 -8 -8
Height
868 869 870 871 871 871 872 873 874 878 879 880 881 882 882 882 882 881 881 881 880 880 880 879 879 879 879 879 879 878 877 877 876 876 875 875 874 873
870 870 871 872 873 873 874 874 876 877 879 879 880 881 881 881 881 880 880 879 879 879 878 878 878 878 878 877 878 877 876 875 875 874 873 873 872 871
871 871 872 873 874 874 875 876 877 878 879 879 878 879 879 880 880 879 877 876 876 876 876 875 875 875 875 876 875 874 873 873 872 871 871 871 870 870
871 872 873 874 875 875 876 876 877 878 879 879 878 877 877 877 876 876 875 874 874 873 873 873 872 873 872 873 873 872 871 870 869 868 868 867 867 867
871 872 872 873 874 875 875 875 875 876 878 879 878 877 876 875 873 872 873 872 872 871 870 870 870 870 870 870 870 869 869 868 867 866 866 865 865 865
871 871 871 871 872 874 874 874 874 875 875 877 877 877 875 872 871 871 870 869 868 868 867 867 868 868 867 868 868 867 865 865 864 864 863 863 862 861
869 869 869 870 870 872 872 872 872 872 873 873 873 875 873 870 869 869 868 866 865 865 864 864 864 864 864 864 863 863 862 861 860 860 860 859 858 857
866 866 867 867 868 869 870 870 869 868 868 869 870 869 868 868 867 866 866 866 864 862 861 861 861 860 860 860 858 857 857 857 855 854 854 853 853 852
863 863 863 863 864 865 865 867 865 864 864 865 865 866 865 864 864 863 863 862 861 860 859 857 857 855 854 854 852 851 852 851 851 849 848 847 846 845
860 860 859 859 861 862 862 862 861 860 861 861 861 861 861 860 860 859 858 858 856 855 855 852 852 849 849 848 847 846 846 846 845 844 843 842 841 839
857 857 857 857 857 859 859 858 856 856 856 856 857 857 857 856 856 855 853 853 852 850 850 848 848 844 843 842 841 841 840 839 839 838 837 836 834 833
853 852 853 854 853 854 853 852 851 850 850 851 851 852 852 851 851 851 850 849 849 847 846 845 844 843 838 836 835 834 834 833 833 833 831 829 828 826
848 847 846 847 847 847 846 845 844 844 844 844 844 845 845 845 845 845 846 845 844 842 841 842 839 838 836 832 831 830 829 827 826 824 823 820 818 818
841 841 840 841 841 840 840 839 839 838 837 836 837 838 838 838 838 839 840 838 838 837 836 836 833 833 831 828 826 824 823 820 817 814 812 810 809 809
836 835 834 834 833 833 832 832 833 832 832 831 831 832 831 832 834 834 834 833 831 830 829 828 827 826 824 821 819 817 815 812 810 808 805 803 801 800
831 830 829 828 828 826 826 825 825 826 825 825 825 826 826 827 827 827 827 826 824 821 821 821 820 819 817 815 814 811 810 808 805 802 799 796 794 792
825 823 821 820 820 819 819 818 818 819 819 819 819 820 820 820 820 820 820 818 817 815 812 812 812 812 810 809 805 804 802 798 797 794 793 789 787 785
818 816 815 814 813 813 812 812 811 812 812 812 813 814 814 815 815 814 814 813 811 810 807 806 805 804 802 798 799 794 793 791 788 787 785 782 778 777
811 810 809 809 808 808 807 806 805 805 806 806 807 808 809 809 810 809 808 808 806 804 802 801 800 799 797 791 789 789 786 783 782 779 777 774 769 767
808 806 805 804 803 802 801 800 799 799 800 801 802 803 803 803 803 803 802 801 799 797 795 794 792 791 790 786 781 778 778 776 774 771 768 765 761 759
804 803 801 799 798 797 796 796 796 795 796 796 796 796 797 797 796 795 794 794 792 790 786 784 782 783 780 779 774 768 764 766 765 763 760 758 753 750
800 798 797 795 794 793 792 792 791 791 791 791 790 790 790 790 789 787 787 785 784 782 779 776 775 775 774 772 767 762 758 752 752 752 751 749 746 740
794 793 791 790 788 787 787 786 785 785 784 784 784 783 783 782 781 780 779 778 776 774 772 770 768 767 764 762 759 755 751 747 742 738 735 734 732 729
Wind_Speed
7 6 6 6 5 5 4 3 3 2 0 3 3 5 3 2 4 7 9 10 9 8 8 8 8 8 8 8 8 9 10 10 11 10 10 10 10 10
6 6 5 5 4 4 3 2 1 2 1 2 3 2 5 7 9 12 13 13 12 10 10 9 8 8 9 9 9 10 10 11 12 12 12 12 12 12
5 4 4 3 2 2 2 2 2 2 1 2 4 8 10 10 11 13 14 13 12 11 10 10 10 11 10 10 11 11 12 13 14 14 14 14 14 14
4 3 3 2 2 3 3 3 3 4 4 7 9 10 11 10 13 15 13 11 11 11 11 11 11 11 10 10 10 12 12 13 14 14 15 15 15 15
3 4 3 4 4 5 5 5 5 6 7 10 10 12 13 13 14 12 11 10 9 10 10 10 10 9 9 11 10 12 13 14 14 15 15 16 17 17
5 5 5 6 6 7 7 7 7 7 8 10 12 14 14 13 13 12 14 14 15 13 12 11 12 13 12 12 12 13 16 15 14 14 14 14 15 16
7 7 7 8 8 8 9 8 9 10 11 11 14 15 17 15 12 12 15 16 16 16 16 12 12 13 12 13 15 19 22 18 17 18 18 19 18 18
9 9 10 11 10 11 12 14 15 15 17 17 18 16 19 16 15 16 16 13 6 18 11 20 21 20 21 24 26 20 18 18 17 18 18 18 18 19
14 14 14 15 12 13 13 14 15 13 14 17 19 18 18 13 14 16 18 18 18 23 19 20 22 23 23 24 22 19 18 16 16 17 17 20 22 23
17 17 17 18 17 16 17 18 18 18 19 19 19 20 19 18 18 20 20 22 23 26 25 13 21 23 24 24 23 20 19 21 22 21 20 20 19 23
17 19 19 21 21 18 19 22 22 23 21 20 20 20 20 19 20 22 19 14 9 12 15 16 20 24 25 27 27 24 23 22 21 22 17 21 24 27
20 21 20 20 20 19 21 23 24 27 25 24 23 21 21 21 21 20 22 20 17 12 14 16 17 18 14 23 21 15 16 20 20 20 26 28 29 29
21 22 24 19 19 20 21 23 25 25 26 24 24 24 21 20 20 19 18 19 20 19 23 18 20 18 16 17 21 22 22 26 28 32 36 32 29 27
26 26 25 20 19 19 20 22 22 22 21 21 21 21 19 19 18 17 20 19 19 21 23 19 17 19 22 22 22 24 27 29 32 34 33 30 28 27
18 20 21 21 21 21 21 22 22 21 18 15 14 17 18 16 16 19 19 20 21 21 21 22 22 24 25 24 23 23 23 24 29 30 30 29 29 29
21 22 21 20 19 17 18 20 20 17 18 19 18 17 16 15 17 19 20 20 19 22 20 20 20 19 23 25 24 22 22 19 24 29 32 33 32 32
21 23 25 25 24 24 24 26 27 26 23 24 22 19 19 19 21 20 19 19 20 22 25 25 22 21 22 25 26 23 24 26 26 29 27 27 28 27
22 18 16 21 22 25 23 24 22 23 23 20 23 21 19 19 22 22 21 21 21 21 22 26 25 24 24 24 22 27 25 25 27 26 27 28 29 27
20 20 19 19 19 20 21 24 25 22 22 16 16 18 19 20 17 19 19 19 20 21 22 23 23 21 13 11 21 20 27 26 25 25 25 27 30 30
19 17 15 16 18 20 20 16 18 16 15 16 17 19 20 21 21 19 19 19 20 22 23 23 23 23 20 18 20 29 26 27 27 28 29 30 33 33
16 17 17 17 16 13 13 13 13 14 16 17 18 20 22 24 23 22 22 23 24 22 20 21 25 23 25 23 17 25 33 27 27 30 26 26 28 29
20 20 19 18 15 13 14 16 17 17 18 19 21 23 25 23 23 23 22 22 23 23 25 28 29 25 25 24 25 28 30 37 29 26 29 33 32 18
21 20 20 21 21 21 21 20 21 22 22 23 24 25 25 24 24 24 24 24 24 24 25 26 26 23 25 25 28 27 28 32 34 32 30 31 33 37
Wind_Direction
121 119 114 105 101 101 107 118 120 140 120 144 142 103 92 12 345 328 325 326 329 330 327 322 315 313 315 317 319 318 316 315 316 314 312 311 309 308
125 124 120 114 111 108 109 119 121 132 131 151 147 27 331 318 316 314 312 304 300 309 313 311 307 302 299 299 300 302 303 302 303 304 304 304 302 302
136 137 136 135 136 142 157 180 211 233 247 257 263 298 312 317 315 313 313 305 295 296 306 306 304 300 297 297 296 296 295 295 295 295 295 295 293 294
166 166 165 186 225 232 237 244 251 254 261 280 294 306 310 316 322 318 319 314 300 298 301 305 299 297 293 295 302 304 301 296 294 292 293 291 290 288
206 219 226 231 243 247 248 249 257 265 271 277 287 299 303 312 318 318 324 329 324 321 313 303 299 296 297 297 298 307 304 300 295 289 285 284 283 281
247 251 246 249 254 255 253 252 251 253 261 272 282 289 294 306 309 314 325 326 322 311 301 296 288 297 292 288 295 299 315 304 293 291 290 287 284 281
258 258 263 262 262 259 259 261 249 248 253 261 271 278 284 289 292 310 309 315 312 321 328 303 307 299 289 287 293 298 309 299 286 285 289 290 289 284
274 273 275 270 264 264 265 265 262 253 256 257 266 262 274 283 291 294 296 300 307 309 306 301 302 298 292 291 296 297 296 294 290 289 286 285 289 286
283 281 281 273 272 272 273 271 265 268 269 267 265 269 280 288 293 287 285 282 274 291 294 290 298 297 302 301 301 292 292 290 294 295 296 297 295 293
274 277 278 276 271 274 274 273 269 270 269 270 271 276 278 286 282 281 284 283 281 284 287 279 294 294 301 299 301 294 288 288 290 289 292 296 303 294
271 271 272 272 270 267 263 266 271 273 268 265 265 267 268 268 271 276 278 282 274 288 292 280 285 289 292 295 298 294 288 286 284 287 283 295 303 298
272 272 268 264 267 261 255 257 259 262 267 269 268 263 263 266 271 273 279 288 283 292 289 267 283 290 293 291 286 292 291 285 286 282 287 293 296 292
269 270 274 267 263 260 261 261 260 268 266 259 263 265 267 266 267 266 272 279 278 266 278 281 286 285 273 284 293 287 284 285 286 287 291 291 287 279
262 265 269 264 264 265 261 260 261 262 257 254 255 254 255 262 265 265 280 277 273 275 281 278 275 275 276 277 278 284 284 284 287 288 292 294 288 281
274 273 266 263 260 259 257 257 257 262 266 255 242 256 260 265 272 275 279 283 281 278 275 277 276 278 274 268 276 282 285 283 286 284 288 290 292 294
271 269 272 273 271 270 265 259 261 268 272 267 261 269 274 269 276 282 285 291 291 291 290 286 283 278 278 278 275 273 275 266 279 280 283 287 288 288
270 270 270 268 265 265 268 269 268 267 260 262 256 263 270 280 284 290 290 292 282 284 290 295 296 291 284 280 274 270 271 270 269 273 273 272 277 277
279 276 268 263 257 264 265 272 270 260 266 261 253 259 263 274 282 286 284 279 276 277 278 287 292 294 293 285 265 267 267 267 272 272 271 273 278 276
279 275 274 270 266 268 271 272 269 263 273 256 252 263 271 282 278 273 270 269 272 271 271 274 278 272 272 276 278 268 267 269 273 274 269 267 270 274
304 312 306 290 282 278 273 274 263 253 252 261 265 269 272 277 275 265 263 263 267 271 271 269 263 257 250 262 271 280 277 268 266 266 270 271 273 278
304 298 302 288 283 282 270 262 267 269 270 269 270 271 273 273 268 264 264 269 274 270 264 263 268 277 277 277 266 273 280 274 263 262 269 271 273 279
293 291 288 288 288 281 281 279 274 271 270 271 272 274 275 270 264 264 262 264 266 263 265 271 280 277 269 260 265 270 277 288 283 269 263 260 262 266
287 285 283 284 282 282 281 279 275 273 273 274 276 277 278 268 267 263 263 264 264 265 265 269 271 267 260 258 263 269 270 275 283 284 274 269 264 264